Weather History for Palm Springs, CA

Change the Weather History Date:

Wednesday, January 1, 2014

  Actual Average Record
Temperature  
Mean Temperature 58 °F 56 °F  
Max Temperature 74 °F 67 °F 84 °F (1981)
Min Temperature 42 °F 45 °F 25 °F (1954)
Degree Days  
Heating Degree Days 7 9  
Month to date heating degree days 7 9  
Since 1 July heating degree days 288 395  
Cooling Degree Days 0 0  
Month to date cooling degree days 0 0  
Year to date cooling degree days 0 0  
Growing Degree Days 9 (Base 50)    
Moisture  
Dew Point 22 °F    
Average Humidity 30    
Maximum Humidity 41    
Minimum Humidity 18    
Precipitation  
Precipitation 0.00 in 0.06 in 1.00 in (1910)
Month to date precipitation 0.00 0.06  
Year to date precipitation 0.00 0.06  
Since 1 July precipitation 1.26 2.86  
Snow  
Snow 0.00 in - - ()
Month to date snowfall 0.0  
Year to date snowfall 0.0  
Since 1 July snowfall 0.0  
Snow Depth 0.00 in    
Sea Level Pressure  
Sea Level Pressure 30.13 in    
Wind  
Wind Speed 4 mph (NW)    
Max Wind Speed 10 mph    
Max Gust Speed 13 mph    
Visibility 10 miles    
Events      
T = Trace of Precipitation, MM = Missing Value Source: NWS Daily Summary

Daily Weather History Graph

Daily Weather History Graph

Search for Another Location

Airport:

Trip Planner

Search our weather history database for the weather conditions in past years. The results will help you decide how hot, cold, wet, or windy it might be!

Date:

Astronomy

Jan. 01, 2014 Rise Set
Actual Time 6:51 AM PST 4:48 PM PST
Civil Twilight 6:23 AM PST 5:16 PM PST
Nautical Twilight 5:52 AM PST 5:47 PM PST
Astronomical Twilight 5:22 AM PST 6:17 PM PST
Moon 6:48 AM PST (1/1) 5:34 PM PST (1/1)
Length of Visible Light 10h 52m
Length of Day
9h 57m
New Moon, 0% of the Moon is Illuminated
Jan 1
New Moon
Jan 7
First Quarter
Jan 15
Full
Jan 23
Last Quarter
Jan 30
New

Hourly Weather History & Observations

Time (PST) Temp. Windchill Dew Point Humidity Pressure Visibility Wind Dir Wind Speed Gust Speed Precip Events Conditions
12:53 AM 48.9 °F - 15.1 °F 26% 30.12 in 10.0 mi NNW 6.9 mph - N/A   Clear
1:53 AM 48.0 °F - 12.0 °F 24% 30.13 in 10.0 mi North 6.9 mph - N/A   Clear
2:53 AM 50.0 °F - 12.0 °F 22% 30.13 in 10.0 mi NW 4.6 mph - N/A   Clear
3:53 AM 45.0 °F 42.6 °F 23.0 °F 42% 30.12 in 10.0 mi West 4.6 mph - N/A   Clear
4:53 AM 48.9 °F - 15.1 °F 26% 30.12 in 10.0 mi NW 6.9 mph - N/A   Clear
5:53 AM 46.0 °F 42.5 °F 12.0 °F 25% 30.14 in 10.0 mi NNW 6.9 mph - N/A   Clear
6:53 AM 46.0 °F 44.8 °F 16.0 °F 30% 30.15 in 10.0 mi NW 3.5 mph - N/A   Clear
7:53 AM 50.0 °F - 14.0 °F 24% 30.17 in 10.0 mi NNW 4.6 mph - N/A   Clear
8:53 AM 57.0 °F - 23.0 °F 27% 30.19 in 10.0 mi Calm Calm - N/A   Clear
9:53 AM 64.0 °F - 21.9 °F 20% 30.19 in 10.0 mi Calm Calm - N/A   Clear
10:53 AM 66.9 °F - 24.1 °F 20% 30.17 in 10.0 mi SSE 3.5 mph - N/A   Clear
11:53 AM 70.0 °F - 25.0 °F 18% 30.14 in 10.0 mi Variable 4.6 mph - N/A   Clear
12:53 PM 72.0 °F - 28.0 °F 20% 30.12 in 10.0 mi SE 4.6 mph - N/A   Partly Cloudy
1:53 PM 73.0 °F - 28.9 °F 20% 30.10 in 10.0 mi Calm Calm - N/A   Clear
2:53 PM 73.9 °F - 30.0 °F 20% 30.10 in 10.0 mi SE 3.5 mph - N/A   Partly Cloudy
3:53 PM 73.0 °F - 30.0 °F 20% 30.10 in 10.0 mi SSE 3.5 mph - N/A   Partly Cloudy
4:53 PM 69.1 °F - 28.9 °F 22% 30.10 in 10.0 mi Calm Calm - N/A   Clear
5:53 PM 64.0 °F - 30.9 °F 29% 30.11 in 10.0 mi Calm Calm - N/A   Clear
6:53 PM 62.1 °F - 24.1 °F 23% 30.12 in 10.0 mi NNW 4.6 mph - N/A   Clear
7:53 PM 59.0 °F - 21.0 °F 23% 30.13 in 10.0 mi NNW 4.6 mph - N/A   Clear
8:53 PM 57.9 °F - 23.0 °F 26% 30.14 in 10.0 mi WNW 5.8 mph - N/A   Clear
9:53 PM 55.9 °F - 21.0 °F 26% 30.15 in 10.0 mi NW 4.6 mph - N/A   Clear
10:53 PM 55.0 °F - 19.9 °F 25% 30.15 in 10.0 mi NNW 6.9 mph - N/A   Clear
11:53 PM 57.0 °F - 21.0 °F 25% 30.14 in 10.0 mi WNW 4.6 mph - N/A   Clear